Regional Weather Roundup
Issued by NWS State College, PA

Home | Current Version | Previous Version | Text Only | Print | Product List | Glossary On
Versions: 1 2 3 4 5 6 7 8 9 10 11 12 13 14 15 16 17 18 19 20 21 22 23 24 25 26 27 28 29 30 31 32 33 34 35 36 37 38 39 40 41 42 43 44 45 46 47 48 49 50
000
ASUS41 KCTP 241403
RWRCTP

REGIONAL WEATHER ROUNDUP
NATIONAL WEATHER SERVICE STATE COLLEGE PA
1000 AM EDT FRI OCT 24 2014

Note: "fair" indicates few or no clouds below 12,000 feet with no
significant weather and/or obstructions to visibility.

* = STATION THAT DOES NOT REPORT PRECIPITATION /E.G. RAIN...SNOW...ETC/
    THUNDER OR FOG.

PAZ002>004-007>009-013>016-020>023-029>032-241500-
WESTERN PENNSYLVANIA

CITY           SKY/WX    TMP DP  RH WIND       PRES   REMARKS
ERIE           PTSUNNY   51  44  77 SW5       30.07F
MEADVILLE      FOG       43  42  97 VRB3      30.08R VSB<1/4
FRANKLIN*      CLOUDY    43  39  87 SW6       30.09F VSB<1/4
NEW CASTLE     FOG       41  41 100 CALM      30.11S VSB 1/2
BEAVER COUNTY  SUNNY     45  39  81 CALM      30.10S
BUTLER*        PTSUNNY   45  39  81 S5        30.11F
PITTSBURGH INT CLOUDY    42  39  89 CALM      30.10S
PITTSBURGH     CLOUDY    45  39  79 S3        30.09F
INDIANA*       CLOUDY    46  43  87 W9        30.12S
LATROBE        CLOUDY   N/A N/A N/A W7        30.12S FOG
WASHINGTON CO* PTSUNNY   43  39  87 CALM      30.12S
$$

PAZ004>006-010>012-017>019-024>028-033>037-041-042-045-046-049>053-241500-
CENTRAL PENNSYLVANIA

CITY           SKY/WX    TMP DP  RH WIND       PRES   REMARKS
BRADFORD       SUNNY     46  37  71 NW8       30.02F
DUBOIS         PTSUNNY   46  41  82 NW10      30.05R
CLEARFIELD     SUNNY     50  40  68 VRB3      30.04S
JOHNSTOWN      MOSUNNY   44  38  79 NW17      30.05S
ALTOONA        SUNNY     51  40  65 NW10      30.04S
STATE COLLEGE  SUNNY     50  37  62 W9        30.02F
WILLIAMSPORT   SUNNY     56  39  53 W17       29.94S
SELINSGROVE    SUNNY     57  40  52 W8        29.96R
FT INDIANTOWN  SUNNY     59  45  59 W10G23    29.93S
CAPITAL CITY   SUNNY     58  40  51 NW15G25   29.95S
HARRISBURG     MOSUNNY   57  41  55 NW15      29.95R
YORK           SUNNY     58  41  53 N12G21    29.95S
$$

PAZ038>040-043-044-047-048-054-055-060>062-067>071-241500-
EASTERN PENNSYLVANIA

CITY           SKY/WX    TMP DP  RH WIND       PRES   REMARKS
SCRANTON       PTSUNNY   53  43  68 NW10      29.91S
MOUNT POCONO   CLOUDY    48  41  76 NW21G30   29.85R
ALLENTOWN      SUNNY     57  42  57 NW13G22   29.88S
QUAKERTOWN*      N/A     57  45  62 NW6       29.88R
READING        MOSUNNY   60  42  51 NW15G22   29.91R
LANCASTER      SUNNY     58  44  60 NW14      29.93R
COATESVILLE    SUNNY     57  45  62 N14G23    29.91R
POTTSTOWN      MOSUNNY   59  44  57 NW14G24   29.89R
BLUE BELL      PTSUNNY   59  45  58 NW7G17    29.87R
DOYLESTOWN     PTSUNNY   56  43  61 N13G23    29.86S
WILLOW GROVE   NOT AVBL
NORTH PHILA    MOSUNNY   60  41  49 N17G26    29.88R
PHILADELPHIA   PTSUNNY   59  43  55 N22G29    29.89R
$$



USA.gov is the U.S. government's official web portal to all federal, state and local government web resources and services.